| time (UTC) | temp F | wind direction | speed MPH | gust MPH | rain 1hr in | rain 24hr in | rain mn in | humidity % | barometer mb |
| 20260506031722 | 56 | 271 | 7.0 | 12.0 | 0.00 | 0.02 | 0.02 | 79 | 1016.6 |
| 20260506030831 | 56 | 257 | 6.0 | 12.0 | 0.00 | 0.02 | 0.02 | 79 | 1016.4 |
| 20260506030323 | 56 | 295 | 5.0 | 12.0 | 0.00 | 0.02 | 0.02 | 79 | 1016.4 |
| 20260506025815 | 57 | 290 | 5.0 | 11.0 | 0.00 | 0.02 | 0.02 | 79 | 1016.3 |
| 20260506025309 | 57 | 271 | 4.0 | 10.0 | 0.00 | 0.02 | 0.02 | 79 | 1016.2 |
| 20260506024802 | 57 | 278 | 4.0 | 11.0 | 0.00 | 0.02 | 0.02 | 78 | 1016.2 |
| 20260506024302 | 57 | 302 | 4.0 | 11.0 | 0.00 | 0.02 | 0.02 | 78 | 1016.1 |
| 20260506023803 | 58 | 300 | 5.0 | 12.0 | 0.00 | 0.02 | 0.02 | 77 | 1016.1 |
| 20260506023302 | 58 | 238 | 7.0 | 12.0 | 0.00 | 0.02 | 0.02 | 77 | 1015.9 |
| 20260506022804 | 58 | 281 | 7.0 | 13.0 | 0.00 | 0.02 | 0.02 | 77 | 1015.8 |
| 20260506022305 | 59 | 266 | 7.0 | 13.0 | 0.00 | 0.02 | 0.02 | 76 | 1015.8 |
| 20260506021804 | 59 | 260 | 8.0 | 15.0 | 0.00 | 0.02 | 0.02 | 76 | 1015.8 |
| 20260506021303 | 59 | 284 | 8.0 | 15.0 | 0.00 | 0.02 | 0.02 | 75 | 1015.8 |
| 20260506020803 | 59 | 271 | 7.0 | 13.0 | 0.00 | 0.02 | 0.02 | 75 | 1015.8 |
| 20260506020301 | 59 | 284 | 8.0 | 13.0 | 0.00 | 0.02 | 0.02 | 75 | 1015.8 |
| 20260506015802 | 59 | 281 | 7.0 | 13.0 | 0.00 | 0.02 | 0.02 | 75 | 1015.8 |
| 20260506015301 | 59 | 270 | 6.0 | 13.0 | 0.00 | 0.02 | 0.02 | 75 | 1015.8 |
| 20260506014803 | 59 | 258 | 6.0 | 13.0 | 0.00 | 0.02 | 0.02 | 74 | 1015.8 |
| 20260506014301 | 59 | 247 | 7.0 | 13.0 | 0.00 | 0.02 | 0.02 | 74 | 1015.9 |
| 20260506013802 | 60 | 281 | 7.0 | 12.0 | 0.00 | 0.02 | 0.02 | 74 | 1016.0 |
| 20260506013254 | 60 | 294 | 6.0 | 12.0 | 0.00 | 0.02 | 0.02 | 73 | 1015.7 |
| 20260506012746 | 60 | 248 | 6.0 | 12.0 | 0.00 | 0.02 | 0.02 | 73 | 1015.8 |
| 20260506012239 | 60 | 280 | 7.0 | 13.0 | 0.00 | 0.02 | 0.02 | 73 | 1015.8 |
| 20260506011735 | 60 | 292 | 7.0 | 14.0 | 0.00 | 0.02 | 0.02 | 72 | 1015.8 |
| 20260506011235 | 60 | 275 | 6.0 | 14.0 | 0.00 | 0.02 | 0.02 | 72 | 1015.7 |
| 20260506011126 | 60 | 255 | 5.0 | 14.0 | 0.00 | 0.02 | 0.02 | 72 | 1015.8 |
| 20260506010236 | 61 | 284 | 6.0 | 12.0 | 0.00 | 0.02 | 0.02 | 71 | 1015.7 |
| 20260506005735 | 61 | 263 | 7.0 | 13.0 | 0.00 | 0.02 | 0.02 | 69 | 1015.6 |
| 20260506005237 | 62 | 247 | 7.0 | 13.0 | 0.00 | 0.02 | 0.02 | 69 | 1015.7 |
| 20260506004736 | 61 | 239 | 7.0 | 14.0 | 0.00 | 0.02 | 0.02 | 72 | 1015.7 |
| 20260506004627 | 60 | 271 | 9.0 | 18.0 | 0.00 | 0.02 | 0.02 | 73 | 1015.7 |
| 20260506003735 | 60 | 277 | 8.0 | 18.0 | 0.00 | 0.02 | 0.02 | 73 | 1015.7 |
| 20260506003237 | 60 | 269 | 8.0 | 15.0 | 0.00 | 0.02 | 0.02 | 73 | 1015.7 |
| 20260506002735 | 60 | 240 | 9.0 | 15.0 | 0.00 | 0.02 | 0.02 | 73 | 1015.6 |
| 20260506002237 | 60 | 279 | 9.0 | 15.0 | 0.00 | 0.02 | 0.02 | 73 | 1015.5 |
| 20260506001735 | 60 | 286 | 10.0 | 18.0 | 0.00 | 0.02 | 0.02 | 72 | 1015.5 |
| 20260506001236 | 60 | 275 | 8.0 | 18.0 | 0.00 | 0.02 | 0.02 | 73 | 1015.4 |
| 20260506000736 | 60 | 290 | 7.0 | 17.0 | 0.00 | 0.02 | 0.02 | 74 | 1015.4 |
| 20260506000240 | 60 | 344 | 8.0 | 17.0 | 0.00 | 0.02 | 0.02 | 73 | 1015.5 |
| 20260506000117 | 60 | 229 | 7.0 | 15.0 | 0.00 | 0.02 | 0.02 | 74 | 1015.4 |
| 20260505235242 | 60 | 246 | 7.0 | 17.0 | 0.00 | 0.02 | 0.02 | 74 | 1015.5 |
| 20260505234744 | 60 | 302 | 6.0 | 17.0 | 0.00 | 0.02 | 0.02 | 74 | 1015.6 |
| 20260505234243 | 60 | 252 | 7.0 | 16.0 | 0.00 | 0.02 | 0.02 | 73 | 1015.6 |
| 20260505233743 | 60 | 274 | 9.0 | 16.0 | 0.00 | 0.02 | 0.02 | 74 | 1015.6 |
| 20260505233246 | 60 | 230 | 9.0 | 15.0 | 0.00 | 0.02 | 0.02 | 73 | 1015.7 |
| 20260505232743 | 60 | 281 | 10.0 | 19.0 | 0.00 | 0.02 | 0.02 | 73 | 1015.7 |
| 20260505232250 | 60 | 296 | 10.0 | 19.0 | 0.00 | 0.02 | 0.02 | 73 | 1015.7 |
| 20260505232121 | 61 | 277 | 9.0 | 19.0 | 0.00 | 0.02 | 0.02 | 73 | 1015.7 |
| 20260505231243 | 61 | 313 | 9.0 | 18.0 | 0.00 | 0.02 | 0.02 | 73 | 1015.7 |
| 20260505230741 | 60 | 276 | 8.0 | 18.0 | 0.00 | 0.02 | 0.02 | 73 | 1015.8 |
| 20260505230243 | 60 | 292 | 8.0 | 18.0 | 0.00 | 0.02 | 0.02 | 73 | 1015.6 |
| 20260505225742 | 61 | 260 | 9.0 | 18.0 | 0.00 | 0.02 | 0.02 | 73 | 1015.5 |
| 20260505225243 | 60 | 296 | 10.0 | 18.0 | 0.00 | 0.02 | 0.02 | 73 | 1015.6 |
| 20260505224742 | 60 | 308 | 10.0 | 18.0 | 0.00 | 0.02 | 0.02 | 73 | 1015.6 |
| 20260505224622 | 61 | 309 | 9.0 | 18.0 | 0.00 | 0.02 | 0.02 | 73 | 1015.5 |
| 20260505224115 | 61 | 243 | 9.0 | 18.0 | 0.00 | 0.02 | 0.02 | 72 | 1015.6 |
| 20260505223242 | 62 | 322 | 8.0 | 18.0 | 0.00 | 0.02 | 0.02 | 72 | 1015.6 |
| 20260505223114 | 62 | 283 | 7.0 | 15.0 | 0.00 | 0.02 | 0.02 | 71 | 1015.6 |
| 20260505222615 | 61 | 279 | 8.0 | 15.0 | 0.00 | 0.02 | 0.02 | 72 | 1015.6 |
| 20260505222123 | 61 | 265 | 7.0 | 17.0 | 0.00 | 0.02 | 0.02 | 71 | 1015.7 |
| 20260505221237 | 61 | 260 | 7.0 | 17.0 | 0.00 | 0.02 | 0.02 | 71 | 1015.7 |
| 20260505220738 | 61 | 284 | 7.0 | 15.0 | 0.00 | 0.02 | 0.02 | 71 | 1015.7 |
| 20260505220237 | 61 | 293 | 7.0 | 15.0 | 0.00 | 0.02 | 0.02 | 70 | 1015.5 |
| 20260505215737 | 61 | 208 | 7.0 | 15.0 | 0.00 | 0.02 | 0.02 | 70 | 1015.6 |
| 20260505215236 | 61 | 284 | 6.0 | 14.0 | 0.00 | 0.02 | 0.02 | 69 | 1015.7 |
| 20260505215117 | 63 | 248 | 6.0 | 14.0 | 0.00 | 0.02 | 0.02 | 67 | 1015.7 |
| 20260505214642 | 63 | 241 | 7.0 | 14.0 | 0.00 | 0.02 | 0.02 | 70 | 1015.7 |
| 20260505213733 | 60 | 275 | 7.0 | 14.0 | 0.00 | 0.02 | 0.02 | 71 | 1015.8 |
| 20260505213239 | 60 | 254 | 8.0 | 15.0 | 0.00 | 0.02 | 0.02 | 72 | 1015.9 |
| 20260505212735 | 60 | 252 | 7.0 | 15.0 | 0.00 | 0.02 | 0.02 | 72 | 1015.8 |
| 20260505212234 | 60 | 262 | 6.0 | 12.0 | 0.00 | 0.02 | 0.02 | 72 | 1015.9 |
| 20260505211737 | 60 | 237 | 5.0 | 14.0 | 0.00 | 0.02 | 0.02 | 72 | 1016.0 |
| 20260505211234 | 60 | 265 | 3.0 | 14.0 | 0.00 | 0.02 | 0.02 | 73 | 1015.9 |
| 20260505210734 | 60 | 250 | 3.0 | 12.0 | 0.00 | 0.02 | 0.02 | 73 | 1015.9 |
| 20260505210658 | 59 | 275 | 7.0 | 12.0 | 0.00 | 0.02 | 0.02 | 72 | 1015.9 |
| 20260505210648 | 60 | 279 | 9.0 | 17.0 | 0.00 | 0.02 | 0.02 | 72 | 1015.8 |
| 20260505204732 | 60 | 300 | 5.0 | 14.0 | 0.00 | 0.02 | 0.02 | 73 | 1015.7 |
| 20260505204232 | 60 | 298 | 6.0 | 14.0 | 0.00 | 0.02 | 0.02 | 72 | 1015.7 |
| 20260505203731 | 60 | 286 | 5.0 | 12.0 | 0.00 | 0.02 | 0.02 | 73 | 1015.8 |
| 20260505203230 | 60 | 296 | 6.0 | 14.0 | 0.00 | 0.02 | 0.02 | 72 | 1015.7 |
| 20260505203133 | 60 | 281 | 6.0 | 14.0 | 0.00 | 0.02 | 0.02 | 72 | 1015.6 |
| 20260505202224 | 60 | 276 | 6.0 | 13.0 | 0.00 | 0.02 | 0.02 | 74 | 1015.8 |
| 20260505201719 | 60 | 273 | 7.0 | 15.0 | 0.00 | 0.02 | 0.02 | 73 | 1015.8 |
| 20260505201215 | 60 | 293 | 7.0 | 15.0 | 0.00 | 0.02 | 0.02 | 73 | 1015.9 |
| 20260505201115 | 60 | 215 | 8.0 | 19.0 | 0.00 | 0.02 | 0.02 | 73 | 1015.9 |
| 20260505200213 | 60 | 261 | 8.0 | 19.0 | 0.00 | 0.02 | 0.02 | 73 | 1016.0 |
| 20260505195713 | 61 | 207 | 7.0 | 13.0 | 0.00 | 0.02 | 0.02 | 71 | 1016.0 |
| 20260505195613 | 62 | 210 | 6.0 | 13.0 | 0.00 | 0.02 | 0.02 | 73 | 1016.0 |
| 20260505194709 | 60 | 273 | 6.0 | 12.0 | 0.00 | 0.02 | 0.02 | 74 | 1016.1 |
| 20260505194215 | 60 | 271 | 4.0 | 10.0 | 0.00 | 0.02 | 0.02 | 73 | 1016.1 |
| 20260505193714 | 60 | 228 | 5.0 | 13.0 | 0.00 | 0.02 | 0.02 | 75 | 1016.0 |
| 20260505193213 | 60 | 257 | 6.0 | 13.0 | 0.00 | 0.02 | 0.02 | 75 | 1016.1 |
| 20260505193059 | 59 | 304 | 6.0 | 15.0 | 0.00 | 0.02 | 0.02 | 74 | 1016.1 |
| 20260505192210 | 60 | 266 | 5.0 | 15.0 | 0.00 | 0.02 | 0.02 | 75 | 1016.1 |
| 20260505191708 | 60 | 261 | 5.0 | 13.0 | 0.00 | 0.02 | 0.02 | 75 | 1016.1 |
| 20260505191208 | 59 | 233 | 5.0 | 13.0 | 0.00 | 0.02 | 0.02 | 74 | 1016.0 |
| 20260505190705 | 60 | 258 | 6.0 | 13.0 | 0.00 | 0.02 | 0.02 | 75 | 1016.1 |
| 20260505190212 | 60 | 273 | 7.0 | 14.0 | 0.00 | 0.02 | 0.02 | 74 | 1016.0 |
| 20260505185710 | 60 | 304 | 6.0 | 14.0 | 0.00 | 0.02 | 0.02 | 77 | 1016.0 |
| 20260505185547 | 58 | 290 | 5.0 | 12.0 | 0.00 | 0.02 | 0.02 | 81 | 1016.0 |
| 20260505184823 | 57 | 246 | 6.0 | 12.0 | 0.00 | 0.02 | 0.02 | 81 | 1016.0 |
| 20260505184734 | 58 | 280 | 6.0 | 12.0 | 0.00 | 0.02 | 0.02 | 81 | 1016.0 |
| 20260505183545 | 57 | 207 | 5.0 | 10.0 | 0.00 | 0.02 | 0.02 | 82 | 1016.1 |
| 20260505182704 | 57 | 268 | 5.0 | 11.0 | 0.00 | 0.02 | 0.02 | 82 | 1016.2 |
| 20260505182208 | 57 | 246 | 5.0 | 11.0 | 0.00 | 0.02 | 0.02 | 82 | 1016.1 |
| 20260505182037 | 57 | 315 | 5.0 | 11.0 | 0.00 | 0.02 | 0.02 | 83 | 1016.0 |
| 20260505181203 | 57 | 273 | 4.0 | 11.0 | 0.00 | 0.02 | 0.02 | 83 | 1016.0 |
| 20260505180702 | 57 | 231 | 3.0 | 8.0 | 0.00 | 0.02 | 0.02 | 84 | 1015.9 |
| 20260505180203 | 56 | 335 | 3.0 | 8.0 | 0.00 | 0.02 | 0.02 | 85 | 1015.8 |
| 20260505180143 | 56 | 222 | 3.0 | 9.0 | 0.00 | 0.02 | 0.02 | 85 | 1015.9 |
| 20260505180135 | 56 | 286 | 6.0 | 15.0 | 0.00 | 0.02 | 0.02 | 85 | 1015.8 |
| 20260505174203 | 55 | 244 | 6.0 | 12.0 | 0.00 | 0.02 | 0.02 | 86 | 1015.7 |
| 20260505173701 | 55 | 250 | 5.0 | 11.0 | 0.00 | 0.02 | 0.02 | 86 | 1015.6 |
| 20260505173200 | 55 | 228 | 5.0 | 11.0 | 0.00 | 0.02 | 0.02 | 87 | 1015.7 |
| 20260505172659 | 55 | 255 | 6.0 | 11.0 | 0.00 | 0.02 | 0.02 | 87 | 1015.7 |
| 20260505172201 | 55 | 303 | 6.0 | 11.0 | 0.00 | 0.02 | 0.02 | 87 | 1015.7 |
| 20260505171659 | 55 | 246 | 6.0 | 11.0 | 0.00 | 0.02 | 0.02 | 87 | 1015.6 |
| 20260505171159 | 54 | 261 | 5.0 | 9.0 | 0.00 | 0.02 | 0.02 | 87 | 1015.5 |
| 20260505170659 | 54 | 298 | 4.0 | 9.0 | 0.00 | 0.02 | 0.02 | 86 | 1015.6 |
| 20260505170202 | 54 | 242 | 5.0 | 12.0 | 0.00 | 0.02 | 0.02 | 86 | 1015.6 |
| 20260505170036 | 55 | 267 | 5.0 | 12.0 | 0.00 | 0.02 | 0.02 | 86 | 1015.7 |
| 20260505165155 | 54 | 286 | 4.0 | 11.0 | 0.00 | 0.02 | 0.02 | 86 | 1015.5 |
| 20260505164815 | 54 | 305 | 4.0 | 10.0 | 0.00 | 0.02 | 0.02 | 86 | 1015.5 |
| 20260505163657 | 54 | 303 | 3.0 | 8.0 | 0.00 | 0.02 | 0.02 | 87 | 1015.5 |
| 20260505163152 | 54 | 332 | 3.0 | 7.0 | 0.00 | 0.02 | 0.02 | 87 | 1015.4 |
| 20260505163014 | 54 | 306 | 4.0 | 9.0 | 0.00 | 0.02 | 0.02 | 87 | 1015.3 |
| 20260505162150 | 54 | 288 | 5.0 | 12.0 | 0.00 | 0.02 | 0.02 | 87 | 1015.4 |
| 20260505161649 | 54 | 312 | 5.0 | 12.0 | 0.00 | 0.02 | 0.02 | 87 | 1015.2 |
| 20260505161151 | 54 | 317 | 5.0 | 11.0 | 0.00 | 0.02 | 0.02 | 87 | 1015.2 |
| 20260505160646 | 54 | 275 | 4.0 | 9.0 | 0.00 | 0.02 | 0.02 | 88 | 1015.3 |
| 20260505160146 | 53 | 240 | 3.0 | 8.0 | 0.00 | 0.02 | 0.02 | 88 | 1015.3 |
| 20260505153141 | 53 | 305 | 5.0 | 11.0 | 0.00 | 0.02 | 0.02 | 89 | 1015.1 |
| 20260505152642 | 53 | 286 | 4.0 | 9.0 | 0.00 | 0.02 | 0.02 | 89 | 1015.0 |
| 20260505152143 | 53 | 263 | 4.0 | 9.0 | 0.00 | 0.02 | 0.02 | 89 | 1015.0 |
| 20260505151637 | 53 | 294 | 4.0 | 10.0 | 0.00 | 0.02 | 0.02 | 89 | 1015.0 |
| 20260505151137 | 53 | 287 | 3.0 | 10.0 | 0.00 | 0.02 | 0.02 | 89 | 1014.9 |
| 20260505150641 | 53 | 277 | 2.0 | 7.0 | 0.00 | 0.02 | 0.02 | 89 | 1014.9 |
| 20260505150516 | 52 | 309 | 2.0 | 7.0 | 0.00 | 0.02 | 0.02 | 89 | 1014.9 |
| 20260505140641 | 51 | 275 | 5.0 | 10.0 | 0.00 | 0.02 | 0.02 | 91 | 1014.7 |
| 20260505140141 | 51 | 303 | 4.0 | 9.0 | 0.00 | 0.02 | 0.02 | 91 | 1014.6 |
| 20260505130122 | 51 | 281 | 0.0 | 0.0 | 0.00 | 0.02 | 0.02 | 90 | 1014.4 |
| 20260505124611 | 51 | 281 | 0.0 | 1.0 | 0.00 | 0.02 | 0.02 | 90 | 1014.8 |
| 20260505124105 | 51 | 281 | 0.0 | 2.0 | 0.01 | 0.02 | 0.02 | 90 | 1014.8 |
| 20260505123603 | 51 | 281 | 0.0 | 2.0 | 0.01 | 0.02 | 0.02 | 90 | 1014.6 |
| 20260505123101 | 51 | 281 | 2.0 | 6.0 | 0.01 | 0.02 | 0.02 | 90 | 1014.6 |
| 20260505122945 | 51 | 281 | 3.0 | 8.0 | 0.01 | 0.02 | 0.02 | 90 | 1014.6 |
| 20260505122456 | 51 | 259 | 3.0 | 8.0 | 0.01 | 0.02 | 0.02 | 90 | 1014.5 |
| 20260505121600 | 51 | 300 | 4.0 | 10.0 | 0.01 | 0.02 | 0.02 | 89 | 1014.5 |
| 20260505121058 | 51 | 296 | 5.0 | 10.0 | 0.01 | 0.02 | 0.02 | 89 | 1014.3 |
| 20260505120557 | 51 | 277 | 5.0 | 8.0 | 0.01 | 0.02 | 0.02 | 89 | 1014.3 |
| 20260505120058 | 51 | 261 | 3.0 | 7.0 | 0.01 | 0.02 | 0.02 | 89 | 1014.4 |
| 20260505115558 | 51 | 275 | 3.0 | 7.0 | 0.01 | 0.02 | 0.02 | 89 | 1014.6 |
| 20260505115055 | 51 | 252 | 2.0 | 5.0 | 0.01 | 0.02 | 0.02 | 89 | 1014.6 |
| 20260505114557 | 51 | 242 | 1.0 | 4.0 | 0.01 | 0.02 | 0.02 | 89 | 1014.4 |
| 20260505114444 | 51 | 300 | 2.0 | 7.0 | 0.00 | 0.01 | 0.01 | 89 | 1014.7 |
| 20260505113555 | 51 | 308 | 3.0 | 7.0 | 0.00 | 0.01 | 0.01 | 89 | 1014.7 |
| 20260505113052 | 51 | 269 | 2.0 | 7.0 | 0.01 | 0.01 | 0.01 | 89 | 1014.8 |
| 20260505112554 | 51 | 274 | 1.0 | 4.0 | 0.01 | 0.01 | 0.01 | 89 | 1014.8 |
| 20260505112427 | 51 | 287 | 3.0 | 8.0 | 0.01 | 0.01 | 0.01 | 89 | 1014.8 |
| 20260505111556 | 51 | 305 | 4.0 | 9.0 | 0.01 | 0.01 | 0.01 | 89 | 1014.8 |
| 20260505111059 | 51 | 286 | 3.0 | 9.0 | 0.01 | 0.01 | 0.01 | 89 | 1014.7 |
| 20260505110557 | 51 | 322 | 2.0 | 7.0 | 0.01 | 0.01 | 0.01 | 89 | 1014.6 |
| 20260505102039 | 51 | 264 | 6.0 | 9.0 | 0.00 | 0.00 | 0.00 | 87 | 1014.4 |
| 20260505101538 | 51 | 269 | 4.0 | 8.0 | 0.00 | 0.00 | 0.00 | 87 | 1014.5 |
| 20260505101040 | 51 | 269 | 6.0 | 9.0 | 0.00 | 0.00 | 0.00 | 87 | 1014.5 |
| 20260505100705 | 51 | 270 | 5.0 | 9.0 | 0.00 | 0.00 | 0.00 | 87 | 1014.5 |
| 20260505095916 | 51 | 289 | 5.0 | 8.0 | 0.00 | 0.00 | 0.00 | 86 | 1014.6 |
| 20260505095045 | 51 | 283 | 4.0 | 8.0 | 0.00 | 0.00 | 0.00 | 86 | 1014.7 |
| 20260505094546 | 51 | 269 | 3.0 | 8.0 | 0.00 | 0.00 | 0.00 | 86 | 1014.7 |
| 20260505094044 | 51 | 271 | 2.0 | 4.0 | 0.00 | 0.00 | 0.00 | 85 | 1014.9 |
| 20260505093544 | 51 | 275 | 2.0 | 4.0 | 0.00 | 0.00 | 0.00 | 85 | 1014.9 |
| 20260505093041 | 51 | 275 | 3.0 | 6.0 | 0.00 | 0.00 | 0.00 | 85 | 1015.0 |
| 20260505092544 | 51 | 275 | 4.0 | 7.0 | 0.00 | 0.00 | 0.00 | 85 | 1014.8 |
| 20260505092415 | 51 | 278 | 3.0 | 7.0 | 0.00 | 0.00 | 0.00 | 85 | 1014.9 |
| 20260505091537 | 51 | 286 | 3.0 | 7.0 | 0.00 | 0.00 | 0.00 | 85 | 1015.0 |
| 20260505091036 | 51 | 274 | 2.0 | 4.0 | 0.00 | 0.00 | 0.00 | 85 | 1015.1 |
| 20260505090533 | 51 | 290 | 2.0 | 4.0 | 0.00 | 0.00 | 0.00 | 84 | 1015.0 |
| 20260505090033 | 51 | 292 | 2.0 | 3.0 | 0.00 | 0.00 | 0.00 | 84 | 1015.3 |
| 20260505085531 | 51 | 292 | 2.0 | 4.0 | 0.00 | 0.00 | 0.00 | 84 | 1015.3 |
| 20260505085032 | 51 | 292 | 2.0 | 4.0 | 0.00 | 0.00 | 0.00 | 84 | 1015.3 |
| 20260505084529 | 51 | 292 | 2.0 | 4.0 | 0.00 | 0.00 | 0.00 | 84 | 1015.2 |
| 20260505084023 | 51 | 272 | 2.0 | 4.0 | 0.00 | 0.00 | 0.00 | 84 | 1015.2 |
| 20260505083524 | 51 | 261 | 2.0 | 4.0 | 0.00 | 0.00 | 0.00 | 84 | 1015.3 |
| 20260505083023 | 51 | 261 | 3.0 | 7.0 | 0.00 | 0.00 | 0.00 | 84 | 1015.3 |
| 20260505082531 | 51 | 273 | 4.0 | 7.0 | 0.00 | 0.00 | 0.00 | 84 | 1015.3 |
| 20260505082023 | 51 | 259 | 4.0 | 7.0 | 0.00 | 0.00 | 0.00 | 83 | 1015.2 |
| 20260505081521 | 51 | 270 | 4.0 | 7.0 | 0.00 | 0.00 | 0.00 | 83 | 1015.4 |
| 20260505081021 | 51 | 250 | 4.0 | 9.0 | 0.00 | 0.00 | 0.00 | 83 | 1015.4 |
| 20260505080521 | 51 | 284 | 5.0 | 9.0 | 0.00 | 0.00 | 0.00 | 83 | 1015.4 |
| 20260505080022 | 51 | 252 | 4.0 | 8.0 | 0.00 | 0.00 | 0.00 | 82 | 1015.5 |
| 20260505075917 | 52 | 273 | 4.0 | 8.0 | 0.00 | 0.00 | 0.00 | 82 | 1015.5 |
| 20260505075023 | 52 | 261 | 4.0 | 8.0 | 0.00 | 0.00 | 0.00 | 81 | 1015.5 |
| 20260505074523 | 52 | 267 | 3.0 | 8.0 | 0.00 | 0.00 | 0.00 | 81 | 1015.7 |
| 20260505074023 | 52 | 280 | 3.0 | 8.0 | 0.00 | 0.00 | 0.00 | 80 | 1015.7 |
| 20260505073519 | 52 | 296 | 4.0 | 8.0 | 0.00 | 0.00 | 0.00 | 80 | 1015.7 |
| 20260505073024 | 52 | 281 | 3.0 | 8.0 | 0.00 | 0.00 | 0.00 | 79 | 1015.7 |
| 20260505072639 | 52 | 270 | 1.0 | 7.0 | 0.00 | 0.00 | 0.00 | 79 | 1015.7 |
| 20260505071518 | 52 | 275 | 3.0 | 7.0 | 0.00 | 0.00 | 0.00 | 79 | 1015.5 |
| 20260505071015 | 52 | 257 | 4.0 | 8.0 | 0.00 | 0.00 | 0.00 | 79 | 1015.4 |
| 20260505070516 | 52 | 280 | 4.0 | 9.0 | 0.00 | 0.00 | 0.00 | 79 | 1015.5 |
| 20260505070009 | 52 | 285 | 5.0 | 9.0 | 0.00 | 0.00 | 0.00 | 79 | 1015.4 |
| 20260505065509 | 52 | 296 | 5.0 | 9.0 | 0.00 | 0.00 | 0.00 | 79 | 1015.3 |
| 20260505065405 | 52 | 279 | 4.0 | 9.0 | 0.00 | 0.00 | 0.00 | 80 | 1015.2 |
| 20260505064506 | 52 | 324 | 3.0 | 8.0 | 0.00 | 0.00 | 0.00 | 80 | 1015.3 |
| 20260505064003 | 52 | 276 | 4.0 | 8.0 | 0.00 | 0.00 | 0.00 | 80 | 1015.3 |
| 20260505063503 | 52 | 284 | 4.0 | 9.0 | 0.00 | 0.00 | 0.00 | 80 | 1015.3 |
| 20260505063355 | 52 | 277 | 3.0 | 9.0 | 0.00 | 0.00 | 0.00 | 80 | 1015.3 |
| 20260505062503 | 52 | 290 | 2.0 | 6.0 | 0.00 | 0.00 | 0.00 | 80 | 1015.3 |
| 20260505062002 | 52 | 278 | 3.0 | 8.0 | 0.00 | 0.00 | 0.00 | 80 | 1015.1 |
| 20260505061512 | 52 | 279 | 4.0 | 9.0 | 0.00 | 0.00 | 0.00 | 81 | 1015.0 |
| 20260505061004 | 52 | 279 | 5.0 | 10.0 | 0.00 | 0.00 | 0.00 | 81 | 1015.1 |
| 20260505060453 | 52 | 293 | 4.0 | 10.0 | 0.00 | 0.00 | 0.00 | 81 | 1015.0 |
| 20260505055952 | 52 | 287 | 3.0 | 9.0 | 0.00 | 0.00 | 0.00 | 82 | 1014.9 |
| 20260505055438 | 52 | 290 | 3.0 | 9.0 | 0.00 | 0.00 | 0.00 | 82 | 1015.0 |
| 20260505055313 | 53 | 295 | 4.0 | 9.0 | 0.00 | 0.00 | 0.00 | 82 | 1014.9 |
| 20260505054816 | 53 | 270 | 4.0 | 8.0 | 0.00 | 0.00 | 0.00 | 82 | 1015.0 |
| 20260505053942 | 53 | 254 | 3.0 | 8.0 | 0.00 | 0.00 | 0.00 | 81 | 1015.1 |
| 20260505053441 | 53 | 286 | 4.0 | 11.0 | 0.00 | 0.00 | 0.00 | 81 | 1015.1 |
| 20260505052941 | 53 | 304 | 4.0 | 11.0 | 0.00 | 0.00 | 0.00 | 81 | 1015.1 |
| 20260505052436 | 53 | 294 | 4.0 | 11.0 | 0.00 | 0.00 | 0.00 | 81 | 1015.3 |
| 20260505051934 | 53 | 257 | 4.0 | 11.0 | 0.00 | 0.00 | 0.00 | 82 | 1015.3 |
| 20260505051547 | 53 | 267 | 5.0 | 11.0 | 0.00 | 0.00 | 0.00 | 82 | 1015.4 |
| 20260505050805 | 53 | 276 | 6.0 | 13.0 | 0.00 | 0.00 | 0.00 | 83 | 1015.7 |
| 20260505050307 | 54 | 280 | 5.0 | 11.0 | 0.00 | 0.00 | 0.00 | 83 | 1015.8 |
| 20260505041427 | 54 | 292 | 3.0 | 8.0 | 0.00 | 0.00 | 0.00 | 83 | 1015.1 |
| 20260505040926 | 54 | 277 | 2.0 | 6.0 | 0.00 | 0.00 | 0.00 | 83 | 1015.0 |
| 20260505040426 | 54 | 286 | 2.0 | 6.0 | 0.00 | 0.00 | 0.00 | 83 | 1015.0 |
| 20260505035924 | 54 | 296 | 1.0 | 6.0 | 0.00 | 0.00 | 0.00 | 83 | 1014.9 |
| 20260505035430 | 54 | 280 | 1.0 | 4.0 | 0.00 | 0.00 | 0.00 | 83 | 1014.9 |
| 20260505034922 | 54 | 319 | 2.0 | 6.0 | 0.00 | 0.00 | 0.00 | 83 | 1014.8 |
| 20260505034430 | 54 | 313 | 2.0 | 6.0 | 0.00 | 0.00 | 0.00 | 83 | 1014.8 |
| 20260505033931 | 54 | 315 | 2.0 | 7.0 | 0.00 | 0.00 | 0.00 | 83 | 1014.8 |
| 20260505033426 | 54 | 303 | 3.0 | 9.0 | 0.00 | 0.00 | 0.00 | 83 | 1014.7 |
| 20260505032925 | 54 | 248 | 3.0 | 9.0 | 0.00 | 0.00 | 0.00 | 82 | 1014.5 |
| 20260505032423 | 54 | 333 | 2.0 | 7.0 | 0.00 | 0.00 | 0.00 | 82 | 1014.5 |
| 20260505031921 | 54 | 284 | 2.0 | 4.0 | 0.00 | 0.00 | 0.00 | 82 | 1014.5 |